Location: Newark
(43.0000°N, 1.6781°W)
Time: 05:50:00
(UTC+00:00)

XW-2C - Pass Details

Date: 07 December 2022
Orbit: 491 x 506 km, 97.5° (Epoch: 28 January)

Event Time Altitude Azimuth Distance (km) Brightness Sun altitude
Rises 05:11:51 0° 34° (NNE) 2,579 ? -23.4°
Reaches altitude 10° 05:14:58 10° 63° (ENE) 1,690 ? -22.8°
Maximum altitude 05:16:39 13° 91° (E) 1,520 ? -22.5°
Drops below altitude 10° 05:18:20 10° 119° (ESE) 1,685 ? -22.2°
Sets 05:21:25 0° 149° (SSE) 2,563 ? -21.7°
